Regional Weather Roundup
Issued by NWS

Home | Current Version | Previous Version | Graphics & Text | Print | Product List | Glossary Off
Versions: 1 2 3 4 5 6 7 8 9 10 11 12 13 14 15 16 17 18 19 20 21 22 23 24 25 26 27 28 29 30 31 32 33 34 35 36 37 38 39 40 41 42 43 44 45 46 47 48 49 50

000
ASUS43 KTOP 171759
RWRKS

WEATHER ROUNDUP FOR KANSAS
NATIONAL WEATHER SERVICE GOODLAND KS
100 PM CDT THU AUG 17 2017

NOTE:  "FAIR" INDICATES FEW OR NO CLOUDS BELOW 12,000 FEET WITH NO
SIGNIFICANT WEATHER AND/OR OBSTRUCTIONS TO VISIBILITY.

KSZ001>006-013>018-027>032-041>047-171900-
NORTHWEST KANSAS

CITY           SKY/WX    TMP DP  RH WIND       PRES   REMARKS
GOODLAND       SUNNY     79  59  50 S14G20    30.10F
6HR MIN TEMP:  57; 6HR MAX TEMP:  79;

HAYS           PTSUNNY   82  52  35 CALM      30.05F
HILL CITY      SUNNY     84  48  28 S8        30.06F
6HR MIN TEMP:  58; 6HR MAX TEMP:  85;

RUSSELL        CLOUDY    84  51  31 VRB6      30.03F
6HR MIN TEMP:  58; 6HR MAX TEMP:  84;

$$

KSZ061>065-074>080-084>089-171900-
SOUTHWEST KANSAS

CITY           SKY/WX    TMP DP  RH WIND       PRES   REMARKS
DODGE CITY     PTSUNNY   83  54  36 SW6       30.10F
6HR MIN TEMP:  56; 6HR MAX TEMP:  83;

ELKHART          N/A    N/A N/A N/A MISG        N/A
GARDEN CITY    PTSUNNY   81  58  45 SW12      30.10F
6HR MIN TEMP:  59; 6HR MAX TEMP:  82; 6HR PCP: TRACE;

GREAT BEND     MOSUNNY   82  55  39 VRB6      30.06F
LIBERAL        SUNNY     83  58  42 CALM      30.12F
$$

KSZ066>073-081>083-090>101-171900-
SOUTHEAST KANSAS

CITY           SKY/WX    TMP DP  RH WIND       PRES   REMARKS
CHANUTE        SUNNY     82  65  56 NW10      30.02F
6HR MIN TEMP:  68; 6HR MAX TEMP:  82;

COFFEYVILLE    SUNNY     83  68  60 NW6       30.01F
6HR MIN TEMP:  68; 6HR MAX TEMP:  83;

HUTCHINSON     SUNNY     85  54  34 VRB5      30.04F
6HR MIN TEMP:  61; 6HR MAX TEMP:  85;

MEDICINE LODGE   N/A     85  55  35 VRB3      30.05F
NEWTON         SUNNY     80  59  48 NW12      30.05F
PARSONS        SUNNY     81  66  60 NW8       30.03S
6HR MIN TEMP:  69; 6HR MAX TEMP:  81; 6HR PCP: TRACE;

WICHITA INTL   MOSUNNY   84  58  40 VRB6      30.04F
6HR MIN TEMP:  65; 6HR MAX TEMP:  85;

WICHITA JABRA  SUNNY     82  61  48 N6        30.04F
6HR MIN TEMP:  64; 6HR MAX TEMP:  83;

WINFIELD       SUNNY     82  62  50 VRB5      30.06S
6HR MIN TEMP:  65; 6HR MAX TEMP:  82;

$$

KSZ007>012-019>026-033>040-048>060-102>105-171900-
NORTHEAST KANSAS

CITY           SKY/WX    TMP DP  RH WIND       PRES   REMARKS
CONCORDIA      SUNNY     83  59  44 W8        30.02S
6HR MIN TEMP:  59; 6HR MAX TEMP:  83;

EMPORIA        SUNNY     80  57  45 NW9       30.02F
6HR MIN TEMP:  63; 6HR MAX TEMP:  81;

LAWRENCE       SUNNY     80  62  54 NW12      29.99R
6HR MIN TEMP:  64; 6HR MAX TEMP:  80;

MANHATTAN      SUNNY     83  59  44 NW7       30.01S
6HR MIN TEMP:  61; 6HR MAX TEMP:  83;

OLATHE IND     SUNNY     78  60  53 NW13      30.00R
6HR MIN TEMP:  65; 6HR MAX TEMP:  79;

OLATHE EXE     SUNNY     77  63  61 W10       29.98S
6HR MIN TEMP:  65; 6HR MAX TEMP:  78;

SALINA         SUNNY     87  56  34 N12       30.02F
6HR MIN TEMP:  62; 6HR MAX TEMP:  87;

TOPEKA BILLARD SUNNY     83  61  47 NW10      29.98F
6HR MIN TEMP:  65; 6HR MAX TEMP:  83;

TOPEKA FORBES  SUNNY     81  62  52 NW8G21    29.99F
6HR MIN TEMP:  66; 6HR MAX TEMP:  81;

$$



USA.gov is the U.S. government's official web portal to all federal, state and local government web resources and services.